Total_Precipitation_Accumulation
1.29 1.27 1.24 1.36 1.34 1.32 1.39 1.35 1.17 1.20 1.20 1.07 1.04 1.08 1.18 1.24 1.38 1.48 1.84 2.50 3.24 3.97 4.18 3.88 3.42 3.06 2.92 2.83 2.74 2.67 2.55 2.53 2.66 2.84 2.78 2.88 3.15 3.18 3.17 3.51 3.73 4.00 4.08
1.07 1.17 1.27 1.40 1.31 1.32 1.39 1.29 1.23 1.27 1.29 1.20 1.12 1.13 1.14 1.21 1.31 1.43 1.58 1.98 2.45 3.16 3.90 4.06 3.74 3.36 3.12 3.04 3.03 3.03 2.80 2.62 2.58 2.76 2.80 2.73 2.88 2.94 2.89 3.10 3.43 3.72 4.15
1.06 1.15 1.24 1.32 1.32 1.30 1.31 1.36 1.39 1.32 1.22 1.17 1.21 1.15 1.08 1.11 1.30 1.43 1.51 1.71 1.81 2.02 2.81 3.63 3.89 3.70 3.48 3.49 3.43 3.26 3.07 2.91 2.74 2.76 2.84 2.76 2.84 2.76 2.78 2.88 2.97 3.12 3.67
1.08 1.32 1.37 1.25 1.32 1.44 1.51 1.58 1.56 1.47 1.37 1.35 1.37 1.30 1.23 1.26 1.40 1.51 1.47 1.46 1.54 1.50 1.83 2.44 3.00 3.36 3.69 3.85 3.86 3.63 3.39 3.22 2.92 2.82 2.81 2.80 2.85 2.66 2.67 2.73 2.74 2.87 3.12
1.22 1.49 1.59 1.43 1.39 1.60 1.62 1.49 1.53 1.61 1.60 1.66 1.50 1.49 1.50 1.54 1.52 1.43 1.42 1.47 1.55 1.57 1.66 1.66 1.96 2.36 3.05 3.62 3.97 4.16 3.79 3.50 3.13 2.86 2.77 2.61 2.67 2.60 2.53 2.51 2.50 2.68 2.77
1.46 1.68 1.86 1.78 1.67 1.82 1.86 1.72 1.85 1.95 1.90 1.99 1.80 1.66 1.62 1.62 1.56 1.56 1.51 1.57 1.69 1.58 1.62 1.62 1.64 1.50 1.94 2.70 3.41 3.96 4.04 3.84 3.47 3.05 2.90 2.61 2.70 2.61 2.41 2.31 2.39 2.56 2.68
1.92 2.05 2.05 2.28 2.30 2.26 2.29 2.23 2.42 2.52 2.28 2.12 2.48 2.40 1.96 1.62 1.50 1.58 1.67 1.74 1.86 1.87 1.83 1.84 1.81 1.56 1.48 1.81 2.50 3.50 3.81 3.81 3.63 3.31 3.21 2.94 2.71 2.52 2.44 2.37 2.35 2.32 2.51
2.28 2.18 2.29 2.54 2.54 2.62 2.70 2.56 2.75 2.93 2.66 2.36 2.85 3.33 2.88 2.37 1.72 1.46 1.57 1.73 1.94 1.98 1.91 1.79 1.82 1.79 1.71 1.75 1.90 2.63 3.26 3.64 3.65 3.51 3.39 3.32 2.80 2.55 2.49 2.42 2.36 2.30 2.27
2.64 2.57 2.55 2.69 2.72 2.78 2.94 2.95 2.93 3.11 3.11 2.79 2.75 3.35 3.35 2.96 2.48 1.87 1.69 1.76 1.95 2.05 2.08 2.03 1.87 1.90 1.84 1.92 2.00 1.91 2.22 2.91 3.49 3.53 3.45 3.42 3.15 2.81 2.58 2.53 2.47 2.33 2.15
2.77 2.71 2.73 2.83 2.87 2.85 2.92 2.92 2.90 3.23 3.53 3.37 3.08 2.81 2.75 2.76 2.83 2.47 2.02 1.85 1.95 2.03 2.14 2.05 2.07 2.16 2.13 2.12 2.09 1.82 1.70 1.96 2.60 3.15 3.30 3.40 3.33 3.09 2.80 2.71 2.70 2.49 2.33
2.57 2.44 2.55 2.75 2.80 2.82 2.83 2.97 3.04 3.32 3.40 3.38 3.31 3.19 2.99 2.77 2.37 2.46 2.42 2.18 2.10 1.98 2.06 2.22 2.30 2.34 2.29 2.44 2.56 2.02 1.65 1.61 1.99 2.57 3.07 3.33 3.48 3.51 3.27 2.97 2.81 2.76 2.70
2.51 2.31 2.35 2.45 2.58 2.68 2.68 2.73 2.90 3.04 3.28 3.43 3.38 3.23 3.24 3.20 2.95 2.71 2.39 2.27 2.38 2.23 2.08 2.06 2.15 2.22 2.37 2.51 2.43 2.24 1.73 1.57 1.70 1.89 2.27 2.83 3.30 3.64 3.61 3.45 3.23 3.07 3.05
2.47 2.42 2.30 2.32 2.37 2.44 2.59 2.82 2.84 2.90 3.06 3.25 3.27 3.22 3.21 3.07 3.01 2.99 2.74 2.39 2.29 2.18 2.09 2.04 2.01 2.07 2.13 2.25 2.30 2.23 1.81 1.70 1.60 1.57 1.62 1.84 2.42 2.98 3.41 3.68 3.69 3.49 3.47
2.03 2.01 2.06 2.13 2.24 2.31 2.41 2.61 2.74 2.77 2.82 2.85 2.85 3.03 3.15 3.04 2.85 2.79 2.80 2.85 2.59 2.33 2.13 2.02 1.96 1.94 1.98 2.00 2.14 2.17 1.75 1.67 1.57 1.47 1.41 1.34 1.55 1.92 2.48 2.93 3.13 3.23 3.47
1.65 1.64 1.68 1.82 2.00 2.12 2.18 2.31 2.49 2.50 2.61 2.64 2.69 2.74 2.75 2.82 2.71 2.54 2.53 2.66 2.81 2.59 2.38 2.16 1.97 1.77 1.80 1.78 1.89 1.66 1.63 1.67 1.61 1.48 1.34 1.25 1.24 1.39 1.72 2.12 2.35 2.33 2.39
1.66 1.67 1.64 1.64 1.74 1.82 1.93 2.11 2.22 2.30 2.39 2.39 2.40 2.45 2.49 2.54 2.54 2.49 2.48 2.54 2.57 2.55 2.42 2.16 1.88 1.63 1.67 1.71 1.89 1.63 1.69 1.91 1.80 1.62 1.38 1.30 1.26 1.27 1.39 1.53 1.65 1.61 1.61
1.73 1.69 1.68 1.68 1.67 1.73 1.80 1.89 2.00 2.13 2.14 2.17 2.08 2.12 2.24 2.32 2.51 2.54 2.50 2.49 2.49 2.42 2.28 2.14 1.88 1.67 1.64 1.74 1.82 1.69 1.72 1.78 1.70 1.66 1.49 1.39 1.27 1.32 1.42 1.44 1.49 1.42 1.32
1.57 1.57 1.65 1.59 1.57 1.60 1.68 1.79 1.87 1.90 1.95 1.90 1.83 1.88 2.01 2.08 2.22 2.34 2.44 2.36 2.39 2.37 2.33 2.28 2.05 1.84 1.75 1.75 1.84 1.80 1.67 1.64 1.66 1.74 1.55 1.44 1.34 1.27 1.38 1.39 1.48 1.55 1.44
1.53 1.57 1.65 1.70 1.59 1.49 1.56 1.63 1.71 1.73 1.72 1.62 1.60 1.68 1.76 1.86 1.96 2.06 2.15 2.23 2.27 2.26 2.35 2.31 2.12 1.94 1.78 1.73 1.78 1.72 1.65 1.71 1.61 1.72 1.68 1.53 1.46 1.35 1.36 1.37 1.36 1.49 1.49
1.39 1.39 1.48 1.56 1.57 1.50 1.43 1.40 1.41 1.57 1.59 1.51 1.40 1.39 1.43 1.47 1.61 1.75 1.85 1.98 2.14 2.28 2.37 2.38 2.23 1.99 1.81 1.77 1.85 1.89 1.86 1.74 1.73 1.64 1.68 1.63 1.61 1.56 1.44 1.41 1.32 1.33 1.43
1.21 1.23 1.37 1.52 1.56 1.52 1.52 1.50 1.39 1.41 1.48 1.52 1.47 1.35 1.25 1.27 1.42 1.54 1.60 1.82 2.01 2.16 2.29 2.35 2.25 2.08 1.92 1.85 1.81 1.81 1.88 1.96 1.95 1.79 1.72 1.61 1.56 1.42 1.29 1.31 1.30 1.25 1.25
1.11 1.09 1.16 1.29 1.42 1.39 1.60 1.65 1.52 1.38 1.38 1.40 1.40 1.39 1.39 1.37 1.26 1.25 1.35 1.51 1.73 1.89 2.04 2.15 2.17 2.00 1.82 1.79 1.86 1.89 1.89 1.96 1.99 1.83 1.76 1.80 1.73 1.60 1.44 1.29 1.36 1.29 1.24
1.10 1.07 1.13 1.24 1.36 1.55 1.68 1.50 1.56 1.49 1.41 1.41 1.36 1.36 1.38 1.36 1.45 1.31 1.29 1.31 1.32 1.47 1.70 1.90 1.92 1.82 1.87 1.82 1.82 1.79 1.77 1.76 1.79 1.81 1.81 1.82 1.77 1.67 1.50 1.41 1.50 1.43 1.38
1.08 1.10 1.15 1.22 1.30 1.51 1.63 1.46 1.65 1.65 1.60 1.53 1.47 1.50 1.54 1.55 1.48 1.61 1.58 1.47 1.35 1.31 1.41 1.33 1.39 1.68 1.83 1.91 1.94 1.95 1.98 1.88 1.79 1.81 1.75 1.77 1.64 1.57 1.48 1.39 1.47 1.40 1.36
1.09 1.10 1.09 1.10 1.11 1.22 1.38 1.32 1.47 1.55 1.64 1.63 1.50 1.47 1.52 1.52 1.77 1.89 1.72 1.62 1.50 1.42 1.60 1.62 1.59 1.67 1.79 1.83 1.84 1.89 1.95 1.91 1.81 1.73 1.63 1.57 1.50 1.56 1.62 1.52 1.48 1.56 1.52
1.13 1.06 1.02 0.98 0.99 1.02 1.25 1.16 1.27 1.31 1.46 1.61 1.57 1.51 1.70 1.63 1.70 1.71 1.60 1.74 1.64 1.49 1.42 1.39 1.37 1.43 1.47 1.57 1.66 1.64 1.77 1.82 1.73 1.75 1.58 1.53 1.52 1.62 1.67 1.56 1.42 1.42 1.50